timestamp,wind_dir_avg,wind_spd_avg,wind_spd_max_dir,wind_spd_gust,battery_voltage,lat,long
2021-10-27 00:04:00+00:00,42.0,5.65,51.0,7.16,12.57,47.59359,-54.27349
2021-10-27 00:14:01+00:00,43.0,6.57,38.0,8.47,12.57,47.59359,-54.27349
2021-10-27 00:24:01+00:00,59.0,7.3,56.0,8.31,12.57,47.59359,-54.27349
2021-10-27 00:34:01+00:00,66.0,6.62,60.0,7.54,12.57,47.59359,-54.27349
2021-10-27 00:44:01+00:00,49.0,5.82,40.0,7.04,12.57,47.59359,-54.27349
2021-10-27 00:54:01+00:00,57.0,6.33,57.0,7.35,12.57,47.59359,-54.27349
2021-10-27 01:04:01+00:00,42.0,5.61,39.0,6.43,12.57,47.59359,-54.27349
2021-10-27 01:14:01+00:00,32.0,6.58,41.0,7.45,12.57,47.59359,-54.27349
2021-10-27 01:24:01+00:00,29.0,6.66,31.0,7.52,12.57,47.59359,-54.27349
2021-10-27 01:34:01+00:00,27.0,6.89,40.0,8.12,12.57,47.59359,-54.27349
2021-10-27 01:44:01+00:00,35.0,6.51,38.0,8.12,12.57,47.59359,-54.27349
2021-10-27 01:54:01+00:00,33.0,6.92,34.0,7.87,12.57,47.59359,-54.27349
2021-10-27 02:04:01+00:00,32.0,6.39,43.0,7.71,12.57,47.59359,-54.27349
2021-10-27 02:14:01+00:00,28.0,6.63,29.0,7.74,12.57,47.59359,-54.27349
2021-10-27 02:24:01+00:00,41.0,6.23,46.0,7.66,12.57,47.59359,-54.27349
2021-10-27 02:34:01+00:00,33.0,6.14,31.0,8.32,12.57,47.59359,-54.27349
2021-10-27 02:44:01+00:00,36.0,6.75,35.0,7.78,12.57,47.59359,-54.27349
2021-10-27 02:54:01+00:00,33.0,5.97,30.0,6.77,12.57,47.59359,-54.27349
2021-10-27 03:04:01+00:00,36.0,7.68,35.0,8.75,12.57,47.59359,-54.27349
2021-10-27 03:14:00+00:00,39.0,7.53,39.0,8.96,12.57,47.59359,-54.27349
2021-10-27 03:24:00+00:00,47.0,7.32,48.0,8.03,12.57,47.59359,-54.27349
2021-10-27 03:34:00+00:00,32.0,5.98,35.0,7.11,12.57,47.59359,-54.27349
2021-10-27 03:44:00+00:00,39.0,4.64,36.0,5.23,12.57,47.59359,-54.27349
2021-10-27 03:54:00+00:00,26.0,6.17,20.0,6.95,12.57,47.59359,-54.27349
2021-10-27 04:04:00+00:00,14.0,5.29,11.0,6.25,12.57,47.59359,-54.27349
2021-10-27 04:14:01+00:00,20.0,5.35,49.0,6.33,12.49,47.59359,-54.27349
2021-10-27 04:24:01+00:00,8.0,5.15,6.0,5.96,12.49,47.59359,-54.27349
2021-10-27 04:34:01+00:00,29.0,5.0,32.0,6.28,12.49,47.59359,-54.27349
2021-10-27 04:44:01+00:00,21.0,3.02,48.0,5.11,12.49,47.59359,-54.27349
2021-10-27 04:54:01+00:00,30.0,3.55,32.0,4.95,12.49,47.59359,-54.27349
2021-10-27 05:04:01+00:00,52.0,4.63,48.0,6.33,12.49,47.59359,-54.27349
2021-10-27 05:14:01+00:00,37.0,4.24,49.0,5.58,12.49,47.59359,-54.27349
2021-10-27 05:24:01+00:00,22.0,5.0,19.0,6.75,12.49,47.59359,-54.27349
2021-10-27 05:34:01+00:00,27.0,6.44,27.0,7.72,12.49,47.59359,-54.27349
2021-10-27 05:44:01+00:00,28.0,4.94,47.0,6.28,12.49,47.59359,-54.27349
2021-10-27 05:54:01+00:00,39.0,5.81,45.0,7.43,12.49,47.59359,-54.27349
2021-10-27 06:04:01+00:00,27.0,6.54,29.0,7.64,12.49,47.59359,-54.27349
2021-10-27 06:14:01+00:00,33.0,6.64,37.0,7.94,12.49,47.59359,-54.27349
2021-10-27 06:24:01+00:00,28.0,5.85,34.0,6.71,12.49,47.59359,-54.27349
2021-10-27 06:34:01+00:00,48.0,6.05,51.0,7.75,12.49,47.59359,-54.27349
2021-10-27 06:44:01+00:00,53.0,6.32,49.0,8.23,12.49,47.59359,-54.27349
2021-10-27 06:54:01+00:00,43.0,6.65,44.0,8.25,12.49,47.59359,-54.27349
2021-10-27 07:04:01+00:00,60.0,5.42,57.0,7.07,12.49,47.59359,-54.27349
2021-10-27 07:14:00+00:00,71.0,4.94,69.0,6.67,12.49,47.59359,-54.27349
2021-10-27 07:24:00+00:00,73.0,5.67,67.0,7.64,12.49,47.59359,-54.27349
2021-10-27 07:34:00+00:00,71.0,4.93,69.0,6.38,12.49,47.59359,-54.27349
2021-10-27 07:44:00+00:00,61.0,5.93,58.0,6.87,12.49,47.59359,-54.27349
2021-10-27 07:54:00+00:00,83.0,3.99,87.0,6.04,12.49,47.59359,-54.27349
2021-10-27 08:04:00+00:00,79.0,4.21,74.0,5.53,12.49,47.59359,-54.27349
2021-10-27 08:14:01+00:00,75.0,6.72,71.0,7.29,12.41,47.59359,-54.27349
2021-10-27 08:24:01+00:00,74.0,6.63,77.0,7.9,12.41,47.59359,-54.27349
2021-10-27 08:34:01+00:00,71.0,6.7,65.0,8.34,12.41,47.59359,-54.27349
2021-10-27 08:44:01+00:00,67.0,7.1,59.0,7.91,12.41,47.59359,-54.27349
2021-10-27 08:54:01+00:00,71.0,5.5,73.0,6.52,12.41,47.59359,-54.27349
2021-10-27 09:04:01+00:00,78.0,5.31,68.0,7.08,12.41,47.59359,-54.27349
2021-10-27 09:14:00+00:00,80.0,4.82,68.0,6.45,12.41,47.59359,-54.27349
2021-10-27 09:24:00+00:00,70.0,4.8,75.0,6.04,12.41,47.59359,-54.27349
2021-10-27 09:34:00+00:00,72.0,5.07,71.0,5.98,12.41,47.59359,-54.27349
2021-10-27 09:44:00+00:00,81.0,4.43,87.0,5.55,12.41,47.59359,-54.27349
2021-10-27 09:54:00+00:00,74.0,5.29,82.0,7.17,12.41,47.59359,-54.27349
2021-10-27 10:04:00+00:00,81.0,3.9,90.0,5.45,12.41,47.59359,-54.27349
2021-10-27 10:14:01+00:00,65.0,6.15,65.0,7.17,12.41,47.59359,-54.27349
2021-10-27 10:24:01+00:00,68.0,6.47,70.0,7.52,12.41,47.59359,-54.27349
2021-10-27 10:34:01+00:00,63.0,5.41,56.0,6.32,12.41,47.59359,-54.27349
2021-10-27 10:44:01+00:00,55.0,5.82,58.0,6.89,12.41,47.59359,-54.27349
2021-10-27 10:54:01+00:00,61.0,6.03,67.0,7.37,12.41,47.59359,-54.27349
2021-10-27 11:04:01+00:00,52.0,7.0,50.0,7.71,12.41,47.59359,-54.27349
2021-10-27 11:14:01+00:00,58.0,6.87,52.0,8.41,12.81,47.59359,-54.27349
2021-10-27 11:24:01+00:00,61.0,7.41,61.0,8.38,12.81,47.59359,-54.27349
2021-10-27 11:34:01+00:00,53.0,7.62,52.0,9.03,12.81,47.59359,-54.27349
2021-10-27 11:44:01+00:00,40.0,8.78,42.0,9.87,12.81,47.59359,-54.27349
2021-10-27 11:54:01+00:00,41.0,8.84,40.0,10.03,12.81,47.59359,-54.27349
2021-10-27 12:04:01+00:00,42.0,8.56,37.0,9.28,12.81,47.59359,-54.27349
2021-10-27 12:14:01+00:00,48.0,8.57,43.0,9.64,13.21,47.59359,-54.27349
2021-10-27 12:24:01+00:00,55.0,7.04,49.0,8.11,13.21,47.59359,-54.27349
2021-10-27 12:34:01+00:00,50.0,7.75,53.0,8.74,13.21,47.59359,-54.27349
2021-10-27 12:44:01+00:00,40.0,8.41,39.0,9.49,13.21,47.59359,-54.27349
2021-10-27 12:54:01+00:00,50.0,9.64,53.0,10.69,13.21,47.59359,-54.27349
2021-10-27 13:04:01+00:00,50.0,8.1,35.0,9.58,13.21,47.59359,-54.27349
2021-10-27 13:14:00+00:00,55.0,9.15,54.0,10.88,13.6,47.59359,-54.27349
2021-10-27 13:24:00+00:00,54.0,9.53,68.0,12.01,13.6,47.59359,-54.27349
2021-10-27 13:34:00+00:00,52.0,9.32,53.0,10.81,13.6,47.59359,-54.27349
2021-10-27 13:44:00+00:00,51.0,8.65,49.0,9.85,13.6,47.59359,-54.27349
2021-10-27 13:54:00+00:00,55.0,8.5,51.0,9.36,13.6,47.59359,-54.27349
2021-10-27 14:04:00+00:00,50.0,8.67,50.0,10.19,13.6,47.59359,-54.27349
2021-10-27 14:14:01+00:00,54.0,8.37,47.0,9.91,14.4,47.59359,-54.27349
2021-10-27 14:24:01+00:00,51.0,9.15,48.0,10.54,14.4,47.59359,-54.27349
2021-10-27 14:34:01+00:00,56.0,8.21,59.0,9.12,14.4,47.59359,-54.27349
2021-10-27 14:44:01+00:00,51.0,7.47,52.0,8.36,14.4,47.59359,-54.27349
2021-10-27 14:54:01+00:00,43.0,7.46,37.0,9.45,14.4,47.59359,-54.27349
2021-10-27 15:04:01+00:00,47.0,8.2,43.0,9.42,14.4,47.59359,-54.27349
2021-10-27 15:14:01+00:00,36.0,7.55,34.0,8.45,14.24,47.59359,-54.27349
2021-10-27 15:24:01+00:00,46.0,7.03,50.0,8.59,14.24,47.59359,-54.27349
2021-10-27 15:34:01+00:00,52.0,7.55,55.0,8.56,14.24,47.59359,-54.27349
2021-10-27 15:44:01+00:00,52.0,8.4,59.0,9.26,14.24,47.59359,-54.27349
2021-10-27 15:54:01+00:00,57.0,7.88,55.0,8.6,14.24,47.59359,-54.27349
2021-10-27 16:04:01+00:00,58.0,7.19,55.0,8.68,14.24,47.59359,-54.27349
2021-10-27 16:14:01+00:00,41.0,6.73,44.0,7.63,13.84,47.59359,-54.27349
2021-10-27 16:24:01+00:00,61.0,6.42,59.0,7.36,13.84,47.59359,-54.27349
2021-10-27 16:34:01+00:00,56.0,6.63,58.0,7.97,13.84,47.59359,-54.27349
2021-10-27 16:44:01+00:00,64.0,8.67,55.0,10.53,13.84,47.59359,-54.27349
2021-10-27 16:54:01+00:00,68.0,9.06,77.0,13.48,13.84,47.59359,-54.27349
2021-10-27 17:04:01+00:00,66.0,8.91,72.0,12.07,13.84,47.59359,-54.27349
2021-10-27 17:14:01+00:00,72.0,13.46,73.0,15.05,13.84,47.59359,-54.27349
2021-10-27 17:24:01+00:00,65.0,8.39,65.0,9.17,13.84,47.59359,-54.27349
2021-10-27 17:34:01+00:00,61.0,8.0,60.0,9.41,13.84,47.59359,-54.27349
2021-10-27 17:44:01+00:00,59.0,8.24,58.0,9.46,13.84,47.59359,-54.27349
2021-10-27 17:54:01+00:00,65.0,10.27,72.0,14.2,13.84,47.59359,-54.27349
2021-10-27 18:04:01+00:00,68.0,7.8,65.0,9.36,13.84,47.59359,-54.27349
2021-10-27 18:14:01+00:00,59.0,8.41,64.0,10.5,13.68,47.59359,-54.27349
2021-10-27 18:24:01+00:00,55.0,10.0,64.0,13.16,13.68,47.59359,-54.27349
2021-10-27 18:34:01+00:00,68.0,8.45,73.0,12.21,13.68,47.59359,-54.27349
2021-10-27 18:44:01+00:00,72.0,11.52,75.0,14.29,13.68,47.59359,-54.27349
2021-10-27 18:54:01+00:00,69.0,9.54,77.0,14.86,13.68,47.59359,-54.27349
2021-10-27 19:04:01+00:00,56.0,9.31,69.0,14.26,13.68,47.59359,-54.27349
2021-10-27 19:14:00+00:00,64.0,9.76,64.0,15.42,13.53,47.59359,-54.27349
2021-10-27 19:24:00+00:00,73.0,10.5,73.0,14.63,13.53,47.59359,-54.27349
2021-10-27 19:34:00+00:00,57.0,9.41,60.0,14.05,13.53,47.59359,-54.27349
2021-10-27 19:44:00+00:00,48.0,10.48,62.0,14.51,13.53,47.59359,-54.27349
2021-10-27 19:54:00+00:00,57.0,10.76,63.0,14.79,13.53,47.59359,-54.27349
2021-10-27 20:04:00+00:00,51.0,8.69,54.0,9.63,13.53,47.59359,-54.27349
2021-10-27 20:14:00+00:00,57.0,10.52,64.0,14.51,13.05,47.59359,-54.27349
2021-10-27 20:24:00+00:00,71.0,11.92,71.0,14.53,13.05,47.59359,-54.27349
2021-10-27 20:34:00+00:00,65.0,8.63,71.0,11.7,13.05,47.59359,-54.27349
2021-10-27 20:44:00+00:00,66.0,12.38,71.0,14.98,13.05,47.59359,-54.27349
2021-10-27 20:54:00+00:00,50.0,9.09,57.0,10.15,13.05,47.59359,-54.27349
2021-10-27 21:04:00+00:00,71.0,11.95,76.0,14.18,13.05,47.59359,-54.27349
2021-10-27 21:14:01+00:00,60.0,8.75,69.0,11.32,12.65,47.59359,-54.27349
2021-10-27 21:24:01+00:00,51.0,7.95,52.0,9.42,12.65,47.59359,-54.27349
2021-10-27 21:34:01+00:00,51.0,9.59,53.0,11.9,12.65,47.59359,-54.27349
2021-10-27 21:44:01+00:00,60.0,8.71,56.0,9.85,12.65,47.59359,-54.27349
2021-10-27 21:54:01+00:00,57.0,11.55,59.0,15.43,12.65,47.59359,-54.27349
2021-10-27 22:04:01+00:00,63.0,12.06,63.0,14.94,12.65,47.59359,-54.27349
2021-10-27 22:14:00+00:00,46.0,10.21,53.0,12.66,12.65,47.59359,-54.27349
2021-10-27 22:24:00+00:00,51.0,10.23,52.0,12.89,12.65,47.59359,-54.27349
2021-10-27 22:34:00+00:00,52.0,9.17,58.0,12.04,12.65,47.59359,-54.27349
2021-10-27 22:44:00+00:00,62.0,12.84,62.0,15.44,12.65,47.59359,-54.27349
2021-10-27 22:54:00+00:00,73.0,13.72,70.0,14.82,12.65,47.59359,-54.27349
2021-10-27 23:04:00+00:00,54.0,10.53,60.0,14.71,12.65,47.59359,-54.27349
2021-10-27 23:14:01+00:00,52.0,9.36,70.0,14.67,12.57,47.59359,-54.27349
2021-10-27 23:24:01+00:00,47.0,10.71,64.0,12.82,12.57,47.59359,-54.27349
2021-10-27 23:34:01+00:00,55.0,12.26,59.0,15.51,12.57,47.59359,-54.27349
2021-10-27 23:44:01+00:00,59.0,13.0,58.0,15.11,12.57,47.59359,-54.27349
2021-10-27 23:54:01+00:00,57.0,11.26,69.0,14.4,12.57,47.59359,-54.27349
